Preview of NWS' New Version of Forecast
This preview is not operational and should not be used for support decisions.

Regional Weather Roundup (RWR)

Issued by Philadelphia/Mt Holly (PHI)

                            
000
ASUS41 KPHI 171212
RWRPHI

REGIONAL WEATHER ROUNDUP
NATIONAL WEATHER SERVICE MOUNT HOLLY NJ
800 AM EDT TUE SEP 17 2019

NOTE:  "FAIR" INDICATES FEW OR NO CLOUDS BELOW 12,000 FEET WITH NO
SIGNIFICANT WEATHER AND/OR OBSTRUCTIONS TO VISIBILITY.

 * = STATION DOES NOT REPORT PRECIPITATION (E.G. RAIN, SNOW, ETC.) 
        OR FOG.

NJZ015>026-171300-
SOUTHERN NEW JERSEY
  
CITY           SKY/WX    TMP DP  RH WIND       PRES   REMARKS
POMONA         FAIR      68  57  68 NE9       30.09R                  
6HR MIN TEMP:  66; 6HR MAX TEMP:  70;                                

WILDWOOD*      FAIR      71  59  65 NE12G20   30.08R                  
MILLVILLE      FAIR     N/A N/A N/A NE12      30.09R                  
MOUNT HOLLY    PTSUNNY   66  55  67 NE8       30.12R                  
TRENTON        CLOUDY    63  54  72 NE9       30.13R                  
6HR MIN TEMP:  61; 6HR MAX TEMP:  68;                                


$$
NJZ001>014-171300-
NORTHERN NEW JERSEY
  
CITY           SKY/WX    TMP DP  RH WIND       PRES   REMARKS
SUSSEX         FAIR      53  53 100 CALM      30.17R                  
ANDOVER*         N/A     55  53  93 NE5       30.17R                  
MORRISTOWN     MOSUNNY   57  57 100 CALM      30.16R                  
NEWARK         FAIR      62  53  72 N14       30.14R                  
TETERBORO      FAIR      62  52  69 N6        30.14R                  
CALDWELL       FAIR      61  53  75 VRB3      30.16R                  
SOMERVILLE     FAIR      60  54  80 CALM      30.14R                  
ALLAIRE*       FAIR      65  54  67 NE6       30.14R                  
TOMS RIVER*    FAIR      65  63  93 NE9       30.12R                  

$$
PAZ043-044-047-054-055-060>062-066>071-171300-
EASTERN PENNSYLVANIA
  
CITY           SKY/WX    TMP DP  RH WIND       PRES   REMARKS
PHILADELPHIA   MOSUNNY   68  51  54 NE12G20   30.11R                  
6HR MIN TEMP:  67; 6HR MAX TEMP:  70;                                

NORTH PHILA    FAIR      67  54  63 NE10      30.14R                  
BLUE BELL*     FAIR      64  55  73 NE5       30.14R                  
DOYLESTOWN     FAIR      62  53  72 NE5       30.14R                  
QUAKERTOWN*    SUNNY     61  55  82 NE3       30.15                   
PERKASIE*      PTSUNNY   61  55  82 NE8       30.16R                  
POTTSTOWN      CLOUDY    62  57  83 NE7       30.16R                  
LANCASTER      FAIR      64  54  69 NE8       30.13R                  
COATESVILLE    CLOUDY    64  61  88 NE5       30.14R                  
WEST CHESTER   PTSUNNY   66  59  77 NE7       30.13R                  
READING        NOT AVBL                                               
ALLENTOWN      FAIR      61  51  70 NE7       30.15R                  
6HR MIN TEMP:  57; 6HR MAX TEMP:  65;                                

QN CITY/ALNTWN FAIR      61  54  77 NE9       30.17R                  
MOUNT POCONO   FAIR      53  48  83 N3        30.18R                  
6HR MIN TEMP:  46; 6HR MAX TEMP:  55;                                

HAZLETON       FAIR      52  48  87 CALM      30.21R                  
LEHIGHTON      FAIR      52  52 100 CALM      30.18R                  
WILKES BARRE   FAIR      53  48  83 E5        30.19R                  

$$
DEZALL-MDZ008-012-015-019-020-171300-
DELAWARE AND EASTERN MARYLAND
  
CITY           SKY/WX    TMP DP  RH WIND       PRES   REMARKS
WILMINGTON     FAIR      71  55  56 E13       30.11R                  
6HR MIN TEMP:  69; 6HR MAX TEMP:  71;                                

CHESWOLD       MOSUNNY   68  63  83 NE8       30.09R                  
GEORGETOWN     FAIR      71  62  73 E8        30.07R                  
6HR MIN TEMP:  69; 6HR MAX TEMP:  72; 6HR PCP:  0.01;                

EASTON         MOSUNNY   72  70  94 NE7       30.10R                  
STEVENSVILLE   CLOUDY    70  68  94 E10G17    30.07R                  
PATUXENT       PTSUNNY   73  66  78 E12       30.04                   
OCEAN CITY     CLOUDY    72  62  71 NE10G18   30.06R                  
WALLOPS ISLAND LGT RAIN  71  68  90 NE17G23   30.04R                  
CAMBRIDGE      CLOUDY    70  68  94 E7        30.06R                  
SALISBURY      FAIR      70  65  84 E9        30.05R                  

$$
PAZ001-021-NYZ056-072-MDZ011-DCZ001-171300-
OTHER NEARBY LOCATIONS
  
CITY           SKY/WX    TMP DP  RH WIND       PRES   REMARKS
HARRISBURG     PTSUNNY   65  54  67 CALM      30.13R                  
STATE COLLEGE  MOSUNNY   57  55  94 NE5       30.18R                  
WILLIAMSPORT   FAIR      56  52  86 CALM      30.18R                  
BINGHAMTON     FAIR      52  46  80 CALM      30.20R                  
NEW YORK CITY  FAIR      62  49  62 VRB5      30.17R                  
BALTIMORE      PTSUNNY   71  64  78 NE12      30.08R                  
WASHINGTON DC  CLOUDY    74  68  81 NE13      30.07R                  

$$